TimeEDT,TemperatureF,Dew PointF,Humidity,Sea Level PressureIn,VisibilityMPH,Wind Direction,Wind SpeedMPH,Gust SpeedMPH,PrecipitationIn,Events,Conditions,WindDirDegrees,DateUTC
12:54 AM,48.0,43.0,83,30.38,8.0,ENE,20.7,26.5,N/A,,Overcast,60,2013-04-23 04:54:00
1:54 AM,46.9,42.1,83,30.36,8.0,NE,16.1,21.9,N/A,,Overcast,50,2013-04-23 05:54:00
2:54 AM,46.9,42.1,83,30.33,9.0,NE,13.8,-,N/A,,Overcast,50,2013-04-23 06:54:00
3:54 AM,46.9,41.0,80,30.32,9.0,NE,18.4,21.9,N/A,,Overcast,50,2013-04-23 07:54:00
4:54 AM,46.9,41.0,80,30.30,9.0,NE,15.0,-,N/A,,Overcast,50,2013-04-23 08:54:00
6:54 AM,46.0,39.9,79,30.30,9.0,NNE,13.8,24.2,N/A,,Overcast,30,2013-04-23 10:54:00
7:54 AM,46.0,41.0,83,30.29,7.0,NE,16.1,23.0,N/A,,Overcast,50,2013-04-23 11:54:00
8:54 AM,46.9,41.0,80,30.29,10.0,NE,18.4,24.2,N/A,,Overcast,40,2013-04-23 12:54:00
9:54 AM,46.9,42.1,83,30.29,9.0,NNE,15.0,20.7,N/A,,Overcast,30,2013-04-23 13:54:00
10:54 AM,48.0,41.0,77,30.27,10.0,NNE,16.1,21.9,N/A,,Overcast,30,2013-04-23 14:54:00
11:54 AM,50.0,42.1,74,30.26,10.0,NE,13.8,-,N/A,,Overcast,40,2013-04-23 15:54:00
12:54 PM,51.1,42.1,71,30.24,10.0,NE,13.8,-,N/A,,Overcast,40,2013-04-23 16:54:00
1:54 PM,52.0,42.1,69,30.21,10.0,NNE,12.7,-,N/A,,Overcast,20,2013-04-23 17:54:00
2:54 PM,54.0,42.1,64,30.21,10.0,North,8.1,-,N/A,,Overcast,350,2013-04-23 18:54:00
3:54 PM,55.0,42.1,62,30.22,10.0,North,10.4,-,N/A,,Overcast,360,2013-04-23 19:54:00
4:54 PM,54.0,43.0,66,30.20,10.0,North,8.1,-,N/A,,Overcast,10,2013-04-23 20:54:00
5:43 PM,53.6,44.6,72,30.16,10.0,NNE,9.2,-,N/A,,Scattered Clouds,20,2013-04-23 21:43:00
5:54 PM,54.0,45.0,72,30.17,10.0,NNE,10.4,-,N/A,,Scattered Clouds,20,2013-04-23 21:54:00
6:12 PM,53.6,44.6,72,30.17,10.0,NNE,8.1,-,N/A,,Mostly Cloudy,20,2013-04-23 22:12:00
6:54 PM,52.0,44.1,74,30.15,10.0,NE,10.4,-,N/A,,Overcast,40,2013-04-23 22:54:00
7:54 PM,50.0,44.1,80,30.15,10.0,North,3.5,-,N/A,,Overcast,10,2013-04-23 23:54:00
8:30 PM,50.0,42.8,76,30.17,10.0,North,4.6,-,N/A,,Overcast,10,2013-04-24 00:30:00
8:54 PM,50.0,43.0,77,30.17,10.0,NNE,6.9,-,N/A,,Overcast,30,2013-04-24 00:54:00
9:54 PM,48.9,43.0,80,30.18,10.0,NE,6.9,-,N/A,,Overcast,40,2013-04-24 01:54:00
10:54 PM,50.0,43.0,77,30.17,10.0,NNE,4.6,-,N/A,,Overcast,20,2013-04-24 02:54:00
11:54 PM,50.0,43.0,77,30.16,10.0,Calm,Calm,-,N/A,,Overcast,0,2013-04-24 03:54:00